Weather History for Grafton, ND

Change the Weather History Date:

Friday, July 12, 2013

  Actual Average Record
Temperature  
Mean Temperature 72 °F -  
Max Temperature 80 °F 83 °F 98 °F (1969)
Min Temperature 62 °F 58 °F 45 °F (1960)
Cooling Degree Days 7    
Growing Degree Days 22 (Base 50)    
Moisture  
Dew Point 68 °F    
Average Humidity 84    
Maximum Humidity 100    
Minimum Humidity 65    
Precipitation  
Precipitation 0.00 in - - ()
Sea Level Pressure  
Sea Level Pressure 29.74 in    
Wind  
Wind Speed 12 mph (South)    
Max Wind Speed 23 mph    
Max Gust Speed 36 mph    
Visibility 9 miles    
Events Fog , Rain , Thunderstorm    
Averages and records for this station are not official NWS values.
T = Trace of Precipitation, MM = Missing Value Source: NWS Daily Summary

Daily Weather History Graph

Daily Weather History Graph

Search for Another Location

Airport:

Trip Planner

Search our weather history database for the weather conditions in past years. The results will help you decide how hot, cold, wet, or windy it might be!

Date:

Astronomy

Jul. 12, 2013 Rise Set
Actual Time 5:41 AM CDT 9:28 PM CDT
Civil Twilight 5:01 AM CDT 10:08 PM CDT
Nautical Twilight 4:06 AM CDT 11:03 PM CDT
Astronomical Twilight 2:43 AM CDT 12:23 AM CDT
Moon 10:24 AM CDT (7/12) 11:11 PM CDT (7/12)
Length of Visible Light 17h 07m
Length of Day
15h 47m
Waxing Crescent, 17% of the Moon is Illuminated
Jul 12
Waxing Crescent
Jul 15
First Quarter
Jul 22
Full
Jul 29
Last Quarter
Aug 6
New

Hourly Weather History & Observations

Time (CDT) Temp. Heat Index Dew Point Humidity Pressure Visibility Wind Dir Wind Speed Gust Speed Precip Events Conditions
12:15 AM 75.2 °F - 66.2 °F 73% 29.76 in 10.0 mi SSE 13.8 mph - N/A   Clear
12:35 AM 75.2 °F - 66.2 °F 73% 29.75 in 10.0 mi SSE 15.0 mph - N/A   Clear
12:55 AM 73.4 °F - 66.2 °F 78% 29.74 in 10.0 mi SSE 15.0 mph - N/A   Clear
1:15 AM 73.4 °F - 66.2 °F 78% 29.74 in 10.0 mi SSE 11.5 mph 18.4 mph N/A   Clear
1:35 AM 73.4 °F - 66.2 °F 78% 29.73 in 10.0 mi SSE 12.7 mph - N/A   Clear
1:55 AM 73.4 °F - 66.2 °F 78% 29.72 in 10.0 mi South 13.8 mph 17.3 mph N/A   Clear
2:15 AM 73.4 °F - 66.2 °F 78% 29.72 in 10.0 mi SSE 15.0 mph 20.7 mph N/A   Clear
2:35 AM 73.4 °F - 66.2 °F 78% 29.73 in 10.0 mi South 15.0 mph - N/A   Clear
2:55 AM 73.4 °F - 66.2 °F 78% 29.72 in 10.0 mi South 16.1 mph 20.7 mph N/A   Clear
3:15 AM 73.4 °F - 66.2 °F 78% 29.72 in 10.0 mi South 13.8 mph 18.4 mph N/A   Clear
3:35 AM 73.4 °F - 66.2 °F 78% 29.73 in 10.0 mi South 10.4 mph - N/A   Clear
3:55 AM 71.6 °F - 66.2 °F 83% 29.74 in 9.0 mi South 6.9 mph - N/A   Partly Cloudy
4:15 AM 71.6 °F - 66.2 °F 83% 29.73 in 10.0 mi South 10.4 mph - N/A   Partly Cloudy
4:35 AM 71.6 °F - 66.2 °F 83% 29.71 in 10.0 mi SSE 16.1 mph - N/A   Clear
4:55 AM 71.6 °F - 66.2 °F 83% 29.71 in 10.0 mi South 10.4 mph - N/A   Clear
5:15 AM 71.6 °F - 66.2 °F 83% 29.71 in 10.0 mi SSE 9.2 mph - N/A   Clear
5:35 AM 71.6 °F - 66.2 °F 83% 29.70 in 10.0 mi SSE 13.8 mph - N/A   Clear
5:55 AM 71.6 °F - 64.4 °F 78% 29.69 in 10.0 mi SSE 16.1 mph 21.9 mph N/A   Clear
6:15 AM 71.6 °F - 64.4 °F 78% 29.70 in 10.0 mi SSE 12.7 mph - N/A   Clear
6:35 AM 71.6 °F - 64.4 °F 78% 29.69 in 10.0 mi SSE 10.4 mph - N/A   Clear
6:55 AM 71.6 °F - 66.2 °F 83% 29.68 in 10.0 mi SSE 13.8 mph 18.4 mph N/A   Clear
7:15 AM 71.6 °F - 66.2 °F 83% 29.68 in 10.0 mi South 13.8 mph 17.3 mph N/A   Clear
7:35 AM 73.4 °F - 66.2 °F 78% 29.68 in 10.0 mi South 16.1 mph 20.7 mph N/A   Clear
7:55 AM 73.4 °F - 66.2 °F 78% 29.67 in 10.0 mi South 17.3 mph 23.0 mph N/A   Clear
8:15 AM 73.4 °F - 66.2 °F 78% 29.67 in 10.0 mi South 15.0 mph 23.0 mph N/A   Clear
8:35 AM 73.4 °F - 66.2 °F 78% 29.68 in 10.0 mi South 19.6 mph 26.5 mph N/A   Clear
8:55 AM 75.2 °F - 66.2 °F 73% 29.69 in 10.0 mi South 23.0 mph 32.2 mph N/A   Clear
9:15 AM 75.2 °F - 66.2 °F 73% 29.70 in 10.0 mi South 17.3 mph 21.9 mph N/A   Clear
9:35 AM 75.2 °F - 66.2 °F 73% 29.69 in 10.0 mi South 15.0 mph 21.9 mph N/A   Clear
9:55 AM 77.0 °F - 68.0 °F 74% 29.68 in 10.0 mi South 12.7 mph 19.6 mph N/A   Clear
10:15 AM 75.2 °F - 68.0 °F 78% 29.67 in 10.0 mi South 10.4 mph - N/A   Clear
10:35 AM 75.2 °F - 68.0 °F 78% 29.65 in 10.0 mi SE 5.8 mph - N/A   Clear
10:55 AM 77.0 °F - 68.0 °F 74% 29.70 in 10.0 mi South 15.0 mph - N/A   Clear
11:15 AM 77.0 °F - 68.0 °F 74% 29.70 in 10.0 mi SSW 16.1 mph 20.7 mph N/A   Clear
11:35 AM 78.8 °F - 68.0 °F 69% 29.70 in 10.0 mi SSW 10.4 mph - N/A   Clear
11:55 AM 80.6 °F 83.2 °F 68.0 °F 65% 29.71 in 10.0 mi SW 11.5 mph - N/A   Clear
12:15 PM 80.6 °F 83.2 °F 68.0 °F 65% 29.73 in 10.0 mi WSW 10.4 mph - N/A   Partly Cloudy
12:35 PM 80.6 °F 83.2 °F 68.0 °F 65% 29.73 in 10.0 mi WSW 9.2 mph 16.1 mph N/A   Scattered Clouds
12:55 PM 80.6 °F 83.9 °F 69.8 °F 70% 29.73 in 10.0 mi West 12.7 mph - N/A   Partly Cloudy
1:15 PM 80.6 °F 83.9 °F 69.8 °F 70% 29.71 in 10.0 mi West 8.1 mph - N/A   Clear
1:35 PM 80.6 °F 83.9 °F 69.8 °F 70% 29.72 in 10.0 mi NW 9.2 mph - N/A   Clear
1:55 PM 80.6 °F 83.2 °F 68.0 °F 65% 29.73 in 10.0 mi NNW 16.1 mph 20.7 mph N/A   Scattered Clouds
2:15 PM 78.8 °F - 68.0 °F 69% 29.73 in 10.0 mi NNW 13.8 mph - N/A   Scattered Clouds
2:35 PM 77.0 °F - 68.0 °F 74% 29.74 in 10.0 mi NNW 11.5 mph - N/A   Scattered Clouds
2:55 PM 77.0 °F - 68.0 °F 74% 29.76 in 10.0 mi NNW 13.8 mph 20.7 mph N/A Thunderstorm Overcast
3:15 PM 73.4 °F - 68.0 °F 83% 29.76 in 4.0 mi NNW 18.4 mph 35.7 mph N/A Rain , Thunderstorm Light Rain
3:35 PM 68.0 °F - 68.0 °F 100% 29.75 in 1.2 mi NNE 12.7 mph 21.9 mph N/A Rain , Thunderstorm Heavy Rain
3:55 PM 69.8 °F - 68.0 °F 94% 29.78 in 6.0 mi North 5.8 mph - N/A Rain , Thunderstorm Light Rain
4:15 PM 69.8 °F - 69.8 °F 100% 29.76 in 7.0 mi North 9.2 mph - N/A Rain , Thunderstorm Light Rain
4:35 PM 69.8 °F - 69.8 °F 100% 29.76 in 10.0 mi NNE 4.6 mph - N/A   Mostly Cloudy
4:55 PM 71.6 °F - 71.6 °F 100% 29.77 in 10.0 mi NE 3.5 mph - N/A   Mostly Cloudy
5:15 PM 71.6 °F - 71.6 °F 100% 29.77 in 10.0 mi ESE 3.5 mph - N/A   Partly Cloudy
5:35 PM 71.6 °F - 71.6 °F 100% 29.76 in 10.0 mi SSE 5.8 mph - N/A   Clear
5:55 PM 71.6 °F - 71.6 °F 100% 29.76 in 10.0 mi SE 4.6 mph - N/A   Clear
6:15 PM 71.6 °F - 71.6 °F 100% 29.76 in 10.0 mi Calm Calm - N/A Thunderstorm Clear
6:35 PM 71.6 °F - 69.8 °F 94% 29.76 in 10.0 mi Calm Calm - N/A   Clear
6:55 PM 73.4 °F - 69.8 °F 88% 29.77 in 10.0 mi WNW 3.5 mph - N/A   Clear
7:15 PM 73.4 °F - 69.8 °F 88% 29.77 in 10.0 mi WNW 3.5 mph - N/A   Clear
7:35 PM 73.4 °F - 69.8 °F 88% 29.78 in 10.0 mi North 5.8 mph - N/A   Clear
7:55 PM 73.4 °F - 69.8 °F 88% 29.77 in 10.0 mi NNW 4.6 mph - N/A   Clear
8:15 PM 73.4 °F - 71.6 °F 94% 29.77 in 10.0 mi NW 3.5 mph - N/A   Clear
8:35 PM 71.6 °F - 71.6 °F 100% 29.78 in 10.0 mi NW 3.5 mph - N/A   Clear
8:55 PM 73.4 °F - 71.6 °F 94% 29.78 in 10.0 mi Calm Calm - N/A   Clear
9:15 PM 71.6 °F - 71.6 °F 100% 29.79 in 10.0 mi WNW 4.6 mph - N/A   Clear
9:35 PM 69.8 °F - 69.8 °F 100% 29.79 in 9.0 mi Calm Calm - N/A   Clear
9:55 PM 69.8 °F - 69.8 °F 100% 29.79 in 8.0 mi Calm Calm - N/A   Clear
10:15 PM 68.0 °F - 68.0 °F 100% 29.79 in 3.0 mi Calm Calm - N/A   Clear
10:35 PM 68.0 °F - 68.0 °F 100% 29.80 in 0.2 mi Calm Calm - N/A Fog Fog
10:55 PM 68.0 °F - 68.0 °F 100% 29.81 in 0.2 mi Calm Calm - N/A Fog Fog
11:15 PM 64.4 °F - 64.4 °F 100% 29.82 in 0.2 mi South 4.6 mph - N/A Fog Fog
11:35 PM 64.4 °F - 64.4 °F 100% 29.83 in 0.2 mi South 4.6 mph - N/A Fog Fog
11:55 PM 62.6 °F - 62.6 °F 100% 29.84 in 0.2 mi SSW 3.5 mph - N/A Fog Fog